Uvalde, Texas, United States (78801)
Lat: 29.21N, Lon: 99.79W
Wx Zone: TXZ203
Local Info
Past Weather Observations for Today

NOTE: This archive is for the closest National Weather Service station to Uvalde. Information may differ from the station used for current weather conditions.

Click here for Long-term Archive

Time Weather Temperature Dewpoint Humidity Pressure Winds Precip Visibility
16:35
Partly Cloudy
81°F / 27°C 57°F / 14°C 45% 29.98 in
(1015 mb)
E 9.2 mph
(E 15 kph)
- 10SM
16:15
Clear
82°F / 28°C 57°F / 14°C 42% 29.98 in
(1015 mb)
ESE 6.9 mph
(ESE 11 kph)
- 10SM
15:55
Clear
82°F / 28°C 57°F / 14°C 42% 29.98 in
(1015 mb)
E 9.2 mph
(E 15 kph)
- 10SM
15:35
Clear
82°F / 28°C 57°F / 14°C 42% 29.98 in
(1015 mb)
ESE 9.2 mph
(ESE 15 kph)
- 10SM
15:15
Clear
82°F / 28°C 55°F / 13°C 40% 29.98 in
(1015 mb)
E 9.2 mph
(E 15 kph)
- 10SM
14:55
Clear
82°F / 28°C 57°F / 14°C 42% 29.98 in
(1015 mb)
E 8.1 mph
(E 13 kph)
- 10SM
14:35
Clear
82°F / 28°C 57°F / 14°C 42% 29.98 in
(1015 mb)
E 10.4 mph
(E 17 kph)
- 10SM
14:15
Partly Cloudy
82°F / 28°C 57°F / 14°C 42% 30.01 in
(1016 mb)
SE 8.1 mph
(SE 13 kph)
- 10SM
13:55
Partly Cloudy
81°F / 27°C 59°F / 15°C 48% 30.01 in
(1016 mb)
E 5.8 mph
(E 9 kph)
- 10SM
13:35
Clear
81°F / 27°C 59°F / 15°C 48% 30.01 in
(1016 mb)
ESE 8.1 mph
(ESE 13 kph)
- 10SM
13:15
Clear
81°F / 27°C 59°F / 15°C 48% 30.01 in
(1016 mb)
ESE 4.6 mph
(ESE 7 kph)
- 10SM
12:55
Clear
81°F / 27°C 61°F / 16°C 51% 30.04 in
(1017 mb)
E 10.4 mph
(E 17 kph)
- 10SM
12:35
Clear
79°F / 26°C 61°F / 16°C 54% 30.04 in
(1017 mb)
E 8.1 mph
(E 13 kph)
- 10SM
12:15
Clear
79°F / 26°C 63°F / 17°C 58% 30.06 in
(1018 mb)
ENE 6.9 mph
(ENE 11 kph)
- 10SM
11:55
Clear
79°F / 26°C 63°F / 17°C 58% 30.06 in
(1018 mb)
E 9.2 mph
(E 15 kph)
- 10SM
11:35
Clear
79°F / 26°C 64°F / 18°C 61% 30.06 in
(1018 mb)
E 6.9 mph
(E 11 kph)
- 10SM
11:15
Clear
77°F / 25°C 64°F / 18°C 65% 30.06 in
(1018 mb)
E 6.9 mph
(E 11 kph)
- 10SM
10:55
Clear
75°F / 24°C 64°F / 18°C 69% 30.09 in
(1019 mb)
E 8.1 mph
(E 13 kph)
- 10SM
10:35
Clear
75°F / 24°C 66°F / 19°C 74% 30.09 in
(1019 mb)
E 9.2 mph
(E 15 kph)
- 10SM
10:15
Partly Cloudy
75°F / 24°C 66°F / 19°C 74% 30.09 in
(1019 mb)
ENE 6.9 mph
(ENE 11 kph)
- 10SM
09:55
Mostly Cloudy
73°F / 23°C 64°F / 18°C 74% 30.09 in
(1019 mb)
E 9.2 mph
(E 15 kph)
- 10SM
09:35
Mostly Cloudy
73°F / 23°C 66°F / 19°C 78% 30.09 in
(1019 mb)
E 10.4 mph
(E 17 kph)
- 10SM
09:15
Overcast
73°F / 23°C 68°F / 20°C 83% 30.09 in
(1019 mb)
E 8.1 mph
(E 13 kph)
- 10SM
08:55
Overcast
70°F / 21°C 66°F / 19°C 88% 30.09 in
(1019 mb)
ENE 5.8 mph
(ENE 9 kph)
- 10SM
08:35
Overcast
70°F / 21°C 66°F / 19°C 88% 30.09 in
(1019 mb)
ENE 5.8 mph
(ENE 9 kph)
- 10SM
08:15
Overcast
68°F / 20°C 64°F / 18°C 88% 30.09 in
(1019 mb)
ENE 5.8 mph
(ENE 9 kph)
- 7SM
07:55
Overcast
68°F / 20°C 66°F / 19°C 94% 30.06 in
(1018 mb)
ENE 8.1 mph
(ENE 13 kph)
- 7SM
07:35
Overcast
68°F / 20°C 66°F / 19°C 94% 30.06 in
(1018 mb)
E 5.8 mph
(E 9 kph)
- 7SM
07:15
Overcast
68°F / 20°C 66°F / 19°C 94% 30.06 in
(1018 mb)
ENE 6.9 mph
(ENE 11 kph)
- 7SM
06:55
Overcast
68°F / 20°C 66°F / 19°C 94% 30.06 in
(1018 mb)
ENE 9.2 mph
(ENE 15 kph)
- 7SM
06:35
Overcast
68°F / 20°C 66°F / 19°C 94% 30.04 in
(1017 mb)
ENE 6.9 mph
(ENE 11 kph)
- 7SM
06:15
Overcast
68°F / 20°C 66°F / 19°C 94% 30.04 in
(1017 mb)
E 6.9 mph
(E 11 kph)
- 7SM
05:55
Overcast
68°F / 20°C 66°F / 19°C 94% 30.04 in
(1017 mb)
E 9.2 mph
(E 15 kph)
- 7SM
05:35
Overcast
68°F / 20°C 66°F / 19°C 94% 30.04 in
(1017 mb)
E 5.8 mph
(E 9 kph)
- 7SM
05:15
Overcast
68°F / 20°C 66°F / 19°C 94% 30.04 in
(1017 mb)
E 8.1 mph
(E 13 kph)
- 7SM
04:55
Overcast
68°F / 20°C 66°F / 19°C 94% 30.04 in
(1017 mb)
E 5.8 mph
(E 9 kph)
- 10SM
04:35
Mostly Cloudy
68°F / 20°C 66°F / 19°C 94% 30.04 in
(1017 mb)
ENE 5.8 mph
(ENE 9 kph)
- 10SM
04:15
Partly Cloudy
66°F / 19°C 64°F / 18°C 94% 30.04 in
(1017 mb)
ENE 6.9 mph
(ENE 11 kph)
- 10SM
03:55
Partly Cloudy
64°F / 18°C 63°F / 17°C 94% 30.01 in
(1016 mb)
ENE 6.9 mph
(ENE 11 kph)
- 10SM
03:35
Clear
66°F / 19°C 63°F / 17°C 88% 30.01 in
(1016 mb)
ENE 4.6 mph
(ENE 7 kph)
- 10SM
03:15
Partly Cloudy
63°F / 17°C 61°F / 16°C 94% 30.01 in
(1016 mb)
NE 5.8 mph
(NE 9 kph)
- 10SM
02:55
Clear
64°F / 18°C 63°F / 17°C 94% 30.01 in
(1016 mb)
NE 4.6 mph
(NE 7 kph)
- 10SM
02:35
Clear
66°F / 19°C 63°F / 17°C 88% 30.04 in
(1017 mb)
E 4.6 mph
(E 7 kph)
- 10SM
02:15
Clear
66°F / 19°C 61°F / 16°C 83% 30.04 in
(1017 mb)
E 3.5 mph
(E 6 kph)
- 10SM
01:55
Clear
66°F / 19°C 61°F / 16°C 83% 30.04 in
(1017 mb)
ENE 4.6 mph
(ENE 7 kph)
- 10SM
01:35
Clear
68°F / 20°C 63°F / 17°C 83% 30.04 in
(1017 mb)
ENE 4.6 mph
(ENE 7 kph)
- 10SM
01:15
Clear
68°F / 20°C 63°F / 17°C 83% 30.04 in
(1017 mb)
E 4.6 mph
(E 7 kph)
- 10SM
00:55
Clear
68°F / 20°C 61°F / 16°C 78% 30.04 in
(1017 mb)
E 4.6 mph
(E 7 kph)
- 10SM
00:35
Clear
68°F / 20°C 61°F / 16°C 78% 30.04 in
(1017 mb)
E 4.6 mph
(E 7 kph)
- 10SM
00:15
Clear
68°F / 20°C 61°F / 16°C 78% 30.04 in
(1017 mb)
E 4.6 mph
(E 7 kph)
- 10SM
Time Weather Temperature Dewpoint Humidity Pressure Winds Precip Visibility


Weather for websites

WeatherForYou.com, LLC is not responsible for any damages or problems caused by this service. Current weather conditions are obtained from the closest station including government and personal stations which may have varying degrees of accuracy. Weather forecasts are derived from the NOAA NDFD. Like all things, this site belongs to Jesus Christ... He just trusts me to maintain it. If you have any questions or comments email webmaster@weatherforyou.com

Copyright © 2014, WeatherForYou.com LLC. All rights reserved.